Christchurch, New Zealand

5:53 AM NZDT on March 26, 2017 (GMT +1300)
Christchurch

Weather History for 93780 - March, 2014

Change the Weather History Date:

Monday, March 17, 2014

  Actual Average Record
Temperature  
Mean Temperature 68 °F -  
Max Temperature 78 °F 63 °F - ()
Min Temperature 59 °F 45 °F - ()
Cooling Degree Days 4    
Growing Degree Days 18 (Base 50)    
Moisture  
Dew Point 59 °F    
Average Humidity 78    
Maximum Humidity 100    
Minimum Humidity 51    
Precipitation  
Precipitation 0.00 in - - ()
Sea Level Pressure  
Sea Level Pressure 29.68 in    
Wind  
Wind Speed 8 mph ()    
Max Wind Speed 13 mph    
Max Gust Speed -    
Visibility 5.9 miles    
Events      
T = Trace of Precipitation, MM = Missing Value Source: Averaged Metar Reports

Daily Weather History Graph

Daily Weather History Graph

Search for Another Location

Airport or City:

Trip Planner

Search our weather history database for the weather conditions in past years. The results will help you decide how hot, cold, wet, or windy it might be!

Date:

Astronomy

Mar. 17, 2014 Rise Set
Actual Time 7:27 AM NZDT 7:47 PM NZDT
Civil Twilight 6:59 AM NZDT 8:16 PM NZDT
Nautical Twilight 6:25 AM NZDT 8:50 PM NZDT
Astronomical Twilight 5:50 AM NZDT 9:24 PM NZDT
Moon 7:46 PM NZDT (3/17) 7:41 AM NZDT (3/17)
Length of Visible Light 13h 17m
Length of Day
12h 20m
Full, 100% of the Moon is Illuminated
Mar 17
Full
Mar 24
Last Quarter
Mar 31
New
Apr 7
First Quarter
Apr 15
Full

Hourly Weather History & Observations

Time (NZDT) Temp. Dew Point Humidity Pressure Visibility Wind Dir Wind Speed Gust Speed Precip Events Conditions
12:00 AM 60.8 °F 60.8 °F 100% 29.50 in 3.7 mi SW 10.4 mph - N/A   Light Drizzle
12:30 AM 60.8 °F 60.8 °F 100% 29.50 in 5.0 mi SSW 10.4 mph - N/A   Light Drizzle
1:00 AM 60.8 °F 60.8 °F 100% 29.50 in 6.2 mi SW 9.2 mph - N/A   Overcast
1:30 AM 60.8 °F 60.8 °F 100% 29.53 in 6.2 mi WSW 10.4 mph - N/A   Overcast
2:00 AM 60.8 °F 60.8 °F 100% 29.50 in 2.5 mi WSW 9.2 mph - N/A   Overcast
2:30 AM 60.8 °F 60.8 °F 100% 29.53 in 6.2 mi SW 9.2 mph - N/A   Mostly Cloudy
3:00 AM 60.8 °F 60.8 °F 100% 29.53 in 1.4 mi WSW 8.1 mph - N/A   Drizzle
3:30 AM 60.8 °F 59.0 °F 94% 29.53 in 5.6 mi WSW 8.1 mph - N/A   Overcast
4:00 AM 60.8 °F 59.0 °F 94% 29.56 in 6.2 mi WSW 6.9 mph - N/A   Overcast
4:30 AM 60.8 °F 59.0 °F 94% 29.56 in 6.2 mi West 5.8 mph - N/A   Overcast
5:00 AM 60.8 °F 59.0 °F 94% 29.56 in 6.2 mi West 4.6 mph - N/A   Overcast
5:30 AM 60.8 °F 59.0 °F 94% 29.59 in 6.2 mi West 4.6 mph - N/A   Overcast
6:00 AM 60.8 °F 59.0 °F 94% 29.59 in 6.2 mi WSW 5.8 mph - N/A   Overcast
6:30 AM 60.8 °F 59.0 °F 94% 29.62 in 6.2 mi WSW 9.2 mph - N/A   Overcast
7:00 AM 60.8 °F 59.0 °F 94% 29.65 in 6.2 mi WSW 8.1 mph - N/A   Overcast
7:30 AM 60.8 °F 59.0 °F 94% 29.65 in 6.2 mi SW 8.1 mph - N/A   Unknown
8:00 AM 59.0 °F 59.0 °F 100% 29.68 in 6.2 mi SW 6.9 mph - N/A   Partly Cloudy
8:30 AM 60.8 °F 59.0 °F 94% 29.71 in 6.2 mi WSW 6.9 mph - N/A   Partly Cloudy
9:00 AM 60.8 °F 59.0 °F 94% 29.71 in 6.2 mi WSW 8.1 mph - N/A   Unknown
9:30 AM 62.6 °F 60.8 °F 94% 29.71 in 6.2 mi SW 9.2 mph - N/A   Unknown
10:00 AM 64.4 °F 60.8 °F 88% 29.74 in 6.2 mi SW 9.2 mph - N/A   Unknown
10:30 AM 66.2 °F 60.8 °F 83% 29.74 in 6.2 mi SSW 8.1 mph - N/A   Unknown
11:00 AM 68.0 °F 60.8 °F 78% 29.77 in 6.2 mi SSW 9.2 mph - N/A   Unknown
11:30 AM 69.8 °F 59.0 °F 68% 29.77 in 6.2 mi South 6.9 mph - N/A   Unknown
12:00 PM 71.6 °F 55.4 °F 57% 29.77 in 6.2 mi South 3.5 mph - N/A   Unknown
12:30 PM 73.4 °F 57.2 °F 57% 29.77 in 6.2 mi NW 1.2 mph - N/A   Unknown
1:00 PM 75.2 °F 59.0 °F 57% 29.77 in 6.2 mi NE 3.5 mph - N/A   Unknown
1:30 PM 75.2 °F 59.0 °F 57% 29.74 in 6.2 mi NNE 3.5 mph - N/A   Unknown
2:00 PM 75.2 °F 57.2 °F 53% 29.74 in 6.2 mi NE 5.8 mph - N/A   Unknown
2:30 PM 77.0 °F 59.0 °F 54% 29.74 in 6.2 mi NE 8.1 mph - N/A   Unknown
3:00 PM 78.8 °F 59.0 °F 51% 29.74 in 6.2 mi NE 9.2 mph - N/A   Unknown
3:30 PM 78.8 °F 62.6 °F 57% 29.74 in 6.2 mi NE 11.5 mph - N/A   Scattered Clouds
4:00 PM 77.0 °F 59.0 °F 54% 29.74 in 6.2 mi ENE 11.5 mph - N/A   Unknown
4:30 PM 75.2 °F 59.0 °F 57% 29.74 in 6.2 mi NE 12.7 mph - N/A   Partly Cloudy
5:00 PM 75.2 °F 59.0 °F 57% 29.74 in 6.2 mi ENE 11.5 mph - N/A   Unknown
5:30 PM 75.2 °F 59.0 °F 57% 29.74 in 6.2 mi ENE 9.2 mph - N/A   Unknown
6:00 PM 73.4 °F 59.0 °F 61% 29.74 in 6.2 mi East 12.7 mph - N/A   Unknown
6:30 PM 71.6 °F 59.0 °F 64% 29.74 in 6.2 mi East 11.5 mph - N/A   Unknown
7:00 PM 69.8 °F 60.8 °F 73% 29.74 in 6.2 mi NE 8.1 mph - N/A   Unknown
7:30 PM 68.0 °F 59.0 °F 73% 29.74 in 6.2 mi East 9.2 mph - N/A   Unknown
8:00 PM 66.2 °F 59.0 °F 78% 29.74 in 6.2 mi ENE 6.9 mph - N/A   Unknown
8:30 PM 68.0 °F 57.2 °F 68% 29.74 in 6.2 mi NE 11.5 mph - N/A   Unknown
9:00 PM 68.0 °F 57.2 °F 68% 29.77 in 6.2 mi NNE 10.4 mph - N/A   Unknown
9:30 PM 68.0 °F 57.2 °F 68% 29.77 in 6.2 mi North 9.2 mph - N/A   Unknown
10:00 PM 68.0 °F 57.2 °F 68% 29.77 in 6.2 mi North 6.9 mph - N/A   Unknown
10:30 PM 66.2 °F 57.2 °F 73% 29.77 in 6.2 mi NNE 6.9 mph - N/A   Unknown
11:00 PM 66.2 °F 57.2 °F 73% 29.77 in 6.2 mi NE 8.1 mph - N/A   Unknown
11:30 PM 68.0 °F 55.4 °F 64% 29.80 in 6.2 mi North 5.8 mph - N/A   Unknown